Sedona, AZ

9:40 AM MST on April 22, 2018 (GMT -0700)
Sedona

Weather History for KSEZ - January, 2013

Change the Weather History Date:

Friday, January 4, 2013

  Actual Average Record
Temperature  
Mean Temperature 41 °F -  
Max Temperature 50 °F 53 °F 66 °F (2012)
Min Temperature 32 °F 27 °F 30 °F (2011)
Degree Days  
Heating Degree Days 24    
Moisture  
Dew Point 8 °F    
Average Humidity 30    
Maximum Humidity 41    
Minimum Humidity 16    
Precipitation  
Precipitation 0.00 in - - ()
Sea Level Pressure  
Sea Level Pressure 30.24 in    
Wind  
Wind Speed 9 mph (ENE)    
Max Wind Speed 15 mph    
Max Gust Speed 21 mph    
Visibility 10 miles    
Events      
Averages and records for this station are not official NWS values.
T = Trace of Precipitation, MM = Missing Value Source: NWS Daily Summary

Daily Weather History Graph

Daily Weather History Graph

Search for Another Location

Airport or City:

Astronomy

Jan. 04, 2013 Rise Set
Actual Time 7:35 AM MST 5:29 PM MST
Civil Twilight 7:07 AM MST 5:57 PM MST
Nautical Twilight 6:35 AM MST 6:28 PM MST
Astronomical Twilight 6:05 AM MST 6:59 PM MST
Moon No Moon Rise 11:38 AM MST (1/4)
Length of Visible Light 10h 50m
Length of Day
9h 54m
Waning Gibbous, 54% of the Moon is Illuminated
Jan 4
Waning Gibbous
Jan 4
Last Quarter
Jan 11
New
Jan 18
First Quarter
Jan 26
Full

Hourly Weather History & Observations

Time (MST) Temp. Windchill Dew Point Humidity Pressure Visibility Wind Dir Wind Speed Gust Speed Precip Events Conditions
12:15 AM 33.8 °F 24.3 °F 10.4 °F 38% 30.25 in 10.0 mi NE 13.8 mph 18.4 mph N/A   Clear
12:35 AM 33.8 °F 24.3 °F 10.4 °F 38% 30.25 in 10.0 mi NE 13.8 mph 20.7 mph N/A   Clear
12:55 AM 33.8 °F 23.9 °F 10.4 °F 38% 30.25 in 10.0 mi NNE 15.0 mph 19.6 mph N/A   Clear
1:15 AM 33.8 °F 25.3 °F 10.4 °F 38% 30.25 in 10.0 mi NE 11.5 mph - N/A   Clear
1:55 AM 32.0 °F 22.5 °F 10.4 °F 41% 30.25 in 10.0 mi ENE 12.7 mph 18.4 mph N/A   Clear
2:15 AM 32.0 °F 23.0 °F 10.4 °F 41% 30.25 in 10.0 mi ENE 11.5 mph 16.1 mph N/A   Clear
4:35 AM 32.0 °F 24.2 °F 8.6 °F 38% 30.24 in 10.0 mi ENE 9.2 mph - N/A   Clear
4:55 AM 32.0 °F 24.8 °F 8.6 °F 38% 30.25 in 10.0 mi ENE 8.1 mph - N/A   Clear
5:15 AM 32.0 °F 23.0 °F 8.6 °F 38% 30.24 in 10.0 mi ENE 11.5 mph - N/A   Clear
5:35 AM 32.0 °F 23.6 °F 8.6 °F 38% 30.24 in 10.0 mi ENE 10.4 mph - N/A   Clear
5:55 AM 32.0 °F 23.6 °F 8.6 °F 38% 30.25 in 10.0 mi ENE 10.4 mph - N/A   Clear
6:15 AM 32.0 °F 23.6 °F 8.6 °F 38% 30.26 in 10.0 mi ENE 10.4 mph - N/A   Clear
6:35 AM 32.0 °F 24.8 °F 8.6 °F 38% 30.26 in 10.0 mi East 8.1 mph - N/A   Clear
6:55 AM 32.0 °F 23.6 °F 6.8 °F 35% 30.26 in 10.0 mi ENE 10.4 mph - N/A   Clear
7:15 AM 32.0 °F 22.5 °F 6.8 °F 35% 30.27 in 10.0 mi ENE 12.7 mph - N/A   Clear
7:55 AM 32.0 °F 23.0 °F 6.8 °F 35% 30.28 in 10.0 mi NE 11.5 mph 17.3 mph N/A   Clear
8:15 AM 32.0 °F 23.0 °F 6.8 °F 35% 30.28 in 10.0 mi ENE 11.5 mph - N/A   Clear
8:35 AM 32.0 °F 23.6 °F 6.8 °F 35% 30.28 in 10.0 mi East 10.4 mph - N/A   Clear
8:55 AM 33.8 °F 27.7 °F 6.8 °F 32% 30.28 in 10.0 mi East 6.9 mph - N/A   Clear
9:15 AM 35.6 °F 32.8 °F 8.6 °F 33% 30.28 in 10.0 mi SSE 3.5 mph - N/A   Clear
9:55 AM 35.6 °F 32.8 °F 8.6 °F 33% 30.28 in 10.0 mi SSE 3.5 mph - N/A   Clear
10:15 AM 37.4 °F - 10.4 °F 33% 30.28 in 10.0 mi Calm Calm - N/A   Clear
10:35 AM 39.2 °F 37.0 °F 10.4 °F 31% 30.28 in 10.0 mi SE 3.5 mph - N/A   Clear
10:55 AM 41.0 °F 38.0 °F 10.4 °F 29% 30.28 in 10.0 mi SSE 4.6 mph - N/A   Clear
11:15 AM 41.0 °F 39.0 °F 10.4 °F 29% 30.28 in 10.0 mi SE 3.5 mph - N/A   Clear
11:35 AM 41.0 °F 38.0 °F 10.4 °F 29% 30.27 in 10.0 mi South 4.6 mph - N/A   Clear
11:55 AM 42.8 °F 40.1 °F 10.4 °F 27% 30.26 in 10.0 mi South 4.6 mph - N/A   Clear
12:15 PM 42.8 °F 41.1 °F 10.4 °F 27% 30.24 in 10.0 mi SSW 3.5 mph - N/A   Clear
12:35 PM 44.6 °F 42.2 °F 12.2 °F 27% 30.23 in 10.0 mi SSW 4.6 mph - N/A   Clear
12:55 PM 44.6 °F 42.2 °F 12.2 °F 27% 30.22 in 10.0 mi SW 4.6 mph - N/A   Clear
1:15 PM 46.4 °F 43.5 °F 12.2 °F 25% 30.20 in 10.0 mi SSE 5.8 mph - N/A   Clear
1:35 PM 46.4 °F 45.2 °F 10.4 °F 23% 30.20 in 10.0 mi South 3.5 mph - N/A   Clear
1:55 PM 48.2 °F - 8.6 °F 20% 30.19 in 10.0 mi South 4.6 mph - N/A   Clear
2:15 PM 48.2 °F - 6.8 °F 19% 30.19 in 10.0 mi SSW 5.8 mph - N/A   Clear
2:35 PM 48.2 °F - 10.4 °F 22% 30.19 in 10.0 mi South 5.8 mph - N/A   Clear
2:55 PM 50.0 °F - 12.2 °F 22% 30.19 in 10.0 mi South 6.9 mph - N/A   Clear
3:15 PM 48.2 °F - 8.6 °F 20% 30.19 in 10.0 mi SSW 3.5 mph - N/A   Clear
3:35 PM 48.2 °F - 8.6 °F 20% 30.20 in 10.0 mi WSW 4.6 mph - N/A   Clear
3:55 PM 46.4 °F 45.2 °F 5.0 °F 18% 30.20 in 10.0 mi West 3.5 mph - N/A   Clear
4:15 PM 46.4 °F 45.2 °F 5.0 °F 18% 30.20 in 10.0 mi West 3.5 mph - N/A   Clear
4:35 PM 46.4 °F - 1.4 °F 16% 30.20 in 10.0 mi Calm Calm - N/A   Clear
4:55 PM 44.6 °F - 3.2 °F 18% 30.20 in 10.0 mi Calm Calm - N/A   Clear
5:15 PM 44.6 °F - 3.2 °F 18% 30.20 in 10.0 mi Calm Calm - N/A   Clear
5:35 PM 44.6 °F - 1.4 °F 17% 30.20 in 10.0 mi Calm Calm - N/A   Clear
5:55 PM 42.8 °F - 3.2 °F 19% 30.20 in 10.0 mi Calm Calm - N/A   Clear
6:15 PM 42.8 °F - 3.2 °F 19% 30.21 in 10.0 mi Calm Calm - N/A   Clear
6:35 PM 42.8 °F - 5.0 °F 21% 30.21 in 10.0 mi Calm Calm - N/A   Clear
6:55 PM 41.0 °F 38.0 °F 6.8 °F 24% 30.22 in 10.0 mi NNE 4.6 mph - N/A   Clear
7:15 PM 37.4 °F 32.8 °F 8.6 °F 30% 30.23 in 10.0 mi NE 5.8 mph - N/A   Clear
7:35 PM 37.4 °F 31.4 °F 10.4 °F 33% 30.23 in 10.0 mi NE 8.1 mph - N/A   Clear
7:55 PM 37.4 °F 31.4 °F 8.6 °F 30% 30.23 in 10.0 mi NE 8.1 mph - N/A   Clear
8:15 PM 37.4 °F 30.3 °F 10.4 °F 33% 30.23 in 10.0 mi NE 10.4 mph - N/A   Clear
8:55 PM 37.4 °F 30.3 °F 8.6 °F 30% 30.24 in 10.0 mi NE 10.4 mph - N/A   Clear
9:15 PM 37.4 °F 32.1 °F 8.6 °F 30% 30.24 in 10.0 mi NE 6.9 mph - N/A   Clear
9:35 PM 35.6 °F 29.9 °F 8.6 °F 33% 30.25 in 10.0 mi NE 6.9 mph - N/A   Clear
9:55 PM 35.6 °F 29.9 °F 8.6 °F 33% 30.25 in 10.0 mi NE 6.9 mph - N/A   Clear
10:15 PM 33.8 °F 26.4 °F 8.6 °F 35% 30.25 in 10.0 mi NE 9.2 mph - N/A   Clear
10:35 PM 33.8 °F 27.7 °F 8.6 °F 35% 30.26 in 10.0 mi NE 6.9 mph - N/A   Clear
10:55 PM 33.8 °F 26.4 °F 8.6 °F 35% 30.26 in 10.0 mi NNE 9.2 mph - N/A   Clear
11:15 PM 33.8 °F 27.0 °F 6.8 °F 32% 30.26 in 10.0 mi NE 8.1 mph - N/A   Clear
11:35 PM 33.8 °F 26.4 °F 6.8 °F 32% 30.26 in 10.0 mi NNE 9.2 mph - N/A   Clear
11:55 PM 33.8 °F 27.0 °F 6.8 °F 32% 30.26 in 10.0 mi NNE 8.1 mph - N/A   Clear